Location: Mountain Lakes
(44.1215°N, 71.9554°W)
Time: 17:03:58
(UTC+00:00)

CZ-4B R/B - Pass Details

Date: 08 September 2024
Orbit: 807 x 881 km, 99.0° (Epoch: 12 October)

Event Time Altitude Azimuth Distance (km) Brightness Sun altitude
Exits shadow 23:38:51 - 134° (SE) 3,209 5.7 -5.9°
Reaches altitude 10° 23:40:53 10° 126° (SE) 2,479 5.1 -6.2°
Maximum altitude 23:45:40 32° 65° (ENE) 1,416 4.0 -7.1°
Drops below altitude 10° 23:50:24 10° 4° (N) 2,449 5.8 -7.9°
Sets 23:52:58 0° 355° (N) 3,376 6.6 -8.4°
